Year,Month,Day,Hour,Minute,Value (Times are PST for windgust in km/hr)
2016,02,07,00,00,8.10
2016,02,07,00,01,9.60
2016,02,07,00,02,8.10
2016,02,07,00,03,9.60
2016,02,07,00,04,9.60
2016,02,07,00,05,8.10
2016,02,07,00,06,9.60
2016,02,07,00,07,9.60
2016,02,07,00,08,8.10
2016,02,07,00,09,8.10
2016,02,07,00,10,6.40
2016,02,07,00,11,6.40
2016,02,07,00,12,8.10
2016,02,07,00,13,6.40
2016,02,07,00,14,8.10
2016,02,07,00,15,6.40
2016,02,07,00,16,6.40
2016,02,07,00,17,6.40
2016,02,07,00,18,6.40
2016,02,07,00,19,6.40
2016,02,07,00,20,8.10
2016,02,07,00,21,4.80
2016,02,07,00,22,4.80
2016,02,07,00,23,6.40
2016,02,07,00,24,6.40
2016,02,07,00,25,6.40
2016,02,07,00,26,6.40
2016,02,07,00,27,8.10
2016,02,07,00,28,8.10
2016,02,07,00,29,9.60
2016,02,07,00,30,6.40
2016,02,07,00,31,6.40
2016,02,07,00,32,6.40
2016,02,07,00,33,4.80
2016,02,07,00,34,6.40
2016,02,07,00,35,6.40
2016,02,07,00,36,6.40
2016,02,07,00,37,4.80
2016,02,07,00,38,6.40
2016,02,07,00,39,8.10
2016,02,07,00,40,6.40
2016,02,07,00,41,6.40
2016,02,07,00,42,6.40
2016,02,07,00,43,6.40
2016,02,07,00,44,6.40
2016,02,07,00,45,6.40
2016,02,07,00,46,8.10
2016,02,07,00,47,8.10
2016,02,07,00,48,8.10
2016,02,07,00,49,8.10
2016,02,07,00,50,6.40
2016,02,07,00,51,6.40
2016,02,07,00,52,6.40
2016,02,07,00,53,6.40
2016,02,07,00,54,6.40
2016,02,07,00,55,4.80
2016,02,07,00,56,6.40
2016,02,07,00,57,4.80
2016,02,07,00,58,4.80
2016,02,07,00,59,8.10
2016,02,07,01,00,8.10
2016,02,07,01,01,8.10
2016,02,07,01,02,8.10
2016,02,07,01,03,8.10
2016,02,07,01,04,8.10
2016,02,07,01,05,9.60
2016,02,07,01,06,8.10
2016,02,07,01,07,9.60
2016,02,07,01,08,9.60
2016,02,07,01,09,8.10
2016,02,07,01,10,8.10
2016,02,07,01,11,6.40
2016,02,07,01,12,8.10
2016,02,07,01,13,8.10
2016,02,07,01,14,8.10
2016,02,07,01,15,6.40
2016,02,07,01,16,8.10
2016,02,07,01,17,6.40
2016,02,07,01,18,4.80
2016,02,07,01,19,6.40
2016,02,07,01,20,8.10
2016,02,07,01,21,6.40
2016,02,07,01,22,8.10
2016,02,07,01,23,8.10
2016,02,07,01,24,6.40
2016,02,07,01,25,9.60
2016,02,07,01,26,8.10
2016,02,07,01,27,8.10
2016,02,07,01,28,8.10
2016,02,07,01,29,8.10
2016,02,07,01,30,6.40
2016,02,07,01,31,8.10
2016,02,07,01,32,6.40
2016,02,07,01,33,4.80
2016,02,07,01,34,6.40
2016,02,07,01,35,6.40
2016,02,07,01,36,8.10
2016,02,07,01,37,9.60
2016,02,07,01,38,9.60
2016,02,07,01,39,11.30
2016,02,07,01,40,8.10
2016,02,07,01,41,8.10
2016,02,07,01,42,8.10
2016,02,07,01,43,6.40
2016,02,07,01,44,6.40
2016,02,07,01,45,3.20
2016,02,07,01,46,6.40
2016,02,07,01,47,6.40
2016,02,07,01,48,4.80
2016,02,07,01,49,4.80
2016,02,07,01,50,4.80
2016,02,07,01,51,4.80
2016,02,07,01,52,8.10
2016,02,07,01,53,8.10
2016,02,07,01,54,8.10
2016,02,07,01,55,9.60
2016,02,07,01,56,8.10
2016,02,07,01,57,6.40
2016,02,07,01,58,6.40
2016,02,07,01,59,8.10
2016,02,07,02,00,8.10
2016,02,07,02,01,6.40
2016,02,07,02,02,8.10
2016,02,07,02,03,8.10
2016,02,07,02,04,6.40
2016,02,07,02,05,6.40
2016,02,07,02,06,6.40
2016,02,07,02,07,6.40
2016,02,07,02,08,6.40
2016,02,07,02,09,6.40
2016,02,07,02,10,6.40
2016,02,07,02,11,8.10
2016,02,07,02,12,11.30
2016,02,07,02,13,14.50
2016,02,07,02,14,11.30
2016,02,07,02,15,9.60
2016,02,07,02,16,8.10
2016,02,07,02,17,9.60
2016,02,07,02,18,8.10
2016,02,07,02,19,6.40
2016,02,07,02,20,6.40
2016,02,07,02,21,4.80
2016,02,07,02,22,6.40
2016,02,07,02,23,6.40
2016,02,07,02,24,8.10
2016,02,07,02,25,6.40
2016,02,07,02,26,6.40
2016,02,07,02,27,6.40
2016,02,07,02,28,6.40
2016,02,07,02,29,6.40
2016,02,07,02,30,4.80
2016,02,07,02,31,4.80
2016,02,07,02,32,6.40
2016,02,07,02,33,6.40
2016,02,07,02,34,8.10
2016,02,07,02,35,8.10
2016,02,07,02,36,8.10
2016,02,07,02,37,8.10
2016,02,07,02,38,6.40
2016,02,07,02,39,6.40
2016,02,07,02,40,8.10
2016,02,07,02,41,8.10
2016,02,07,02,42,8.10
2016,02,07,02,43,8.10
2016,02,07,02,44,6.40
2016,02,07,02,45,6.40
2016,02,07,02,46,6.40
2016,02,07,02,47,9.60
2016,02,07,02,48,9.60
2016,02,07,02,49,9.60
2016,02,07,02,50,8.10
2016,02,07,02,51,8.10
2016,02,07,02,52,9.60
2016,02,07,02,53,11.30
2016,02,07,02,54,11.30
2016,02,07,02,55,11.30
2016,02,07,02,56,11.30
2016,02,07,02,57,11.30
2016,02,07,02,58,9.60
2016,02,07,02,59,8.10
2016,02,07,03,00,9.60
2016,02,07,03,01,9.60
2016,02,07,03,02,8.10
2016,02,07,03,03,6.40
2016,02,07,03,04,8.10
2016,02,07,03,05,8.10
2016,02,07,03,06,8.10
2016,02,07,03,07,8.10
2016,02,07,03,08,6.40
2016,02,07,03,09,8.10
2016,02,07,03,10,8.10
2016,02,07,03,11,8.10
2016,02,07,03,12,8.10
2016,02,07,03,13,8.10
2016,02,07,03,14,6.40
2016,02,07,03,15,8.10
2016,02,07,03,16,9.60
2016,02,07,03,17,8.10
2016,02,07,03,18,6.40
2016,02,07,03,19,9.60
2016,02,07,03,20,8.10
2016,02,07,03,21,8.10
2016,02,07,03,22,8.10
2016,02,07,03,23,9.60
2016,02,07,03,24,9.60
2016,02,07,03,25,9.60
2016,02,07,03,26,14.50
2016,02,07,03,27,8.10
2016,02,07,03,28,9.60
2016,02,07,03,29,8.10
2016,02,07,03,30,16.10
2016,02,07,03,31,12.90
2016,02,07,03,32,11.30
2016,02,07,03,33,14.50
2016,02,07,03,34,14.50
2016,02,07,03,35,9.60
2016,02,07,03,36,11.30
2016,02,07,03,37,9.60
2016,02,07,03,38,9.60
2016,02,07,03,39,12.90
2016,02,07,03,40,14.50
2016,02,07,03,41,9.60
2016,02,07,03,42,11.30
2016,02,07,03,43,9.60
2016,02,07,03,44,8.10
2016,02,07,03,45,8.10
2016,02,07,03,46,8.10
2016,02,07,03,47,4.80
2016,02,07,03,48,8.10
2016,02,07,03,49,8.10
2016,02,07,03,50,8.10
2016,02,07,03,51,11.30
2016,02,07,03,52,6.40
2016,02,07,03,53,6.40
2016,02,07,03,54,8.10
2016,02,07,03,55,8.10
2016,02,07,03,56,8.10
2016,02,07,03,57,9.60
2016,02,07,03,58,8.10
2016,02,07,03,59,4.80
2016,02,07,04,00,6.40
2016,02,07,04,01,6.40
2016,02,07,04,02,8.10
2016,02,07,04,03,6.40
2016,02,07,04,04,4.80
2016,02,07,04,05,6.40
2016,02,07,04,06,8.10
2016,02,07,04,07,8.10
2016,02,07,04,08,8.10
2016,02,07,04,09,8.10
2016,02,07,04,10,9.60
2016,02,07,04,11,6.40
2016,02,07,04,12,8.10
2016,02,07,04,13,4.80
2016,02,07,04,14,9.60
2016,02,07,04,15,9.60
2016,02,07,04,16,11.30
2016,02,07,04,17,6.40
2016,02,07,04,18,9.60
2016,02,07,04,19,9.60
2016,02,07,04,20,9.60
2016,02,07,04,21,9.60
2016,02,07,04,22,12.90
2016,02,07,04,23,11.30
2016,02,07,04,24,11.30
2016,02,07,04,25,9.60
2016,02,07,04,26,11.30
2016,02,07,04,27,14.50
2016,02,07,04,28,12.90
2016,02,07,04,29,11.30
2016,02,07,04,30,16.10
2016,02,07,04,31,12.90
2016,02,07,04,32,11.30
2016,02,07,04,33,14.50
2016,02,07,04,34,9.60
2016,02,07,04,35,11.30
2016,02,07,04,36,12.90
2016,02,07,04,37,12.90
2016,02,07,04,38,16.10
2016,02,07,04,39,11.30
2016,02,07,04,40,9.60
2016,02,07,04,41,11.30
2016,02,07,04,42,9.60
2016,02,07,04,43,12.90
2016,02,07,04,44,9.60
2016,02,07,04,45,9.60
2016,02,07,04,46,9.60
2016,02,07,04,47,9.60
2016,02,07,04,48,9.60
2016,02,07,04,49,12.90
2016,02,07,04,50,11.30
2016,02,07,04,51,9.60
2016,02,07,04,52,11.30
2016,02,07,04,53,14.50
2016,02,07,04,54,12.90
2016,02,07,04,55,9.60
2016,02,07,04,56,8.10
2016,02,07,04,57,14.50
2016,02,07,04,58,9.60
2016,02,07,04,59,9.60
2016,02,07,05,00,9.60
2016,02,07,05,01,11.30
2016,02,07,05,02,9.60
2016,02,07,05,03,9.60
2016,02,07,05,04,11.30
2016,02,07,05,05,11.30
2016,02,07,05,06,8.10
2016,02,07,05,07,8.10
2016,02,07,05,08,8.10
2016,02,07,05,09,9.60
2016,02,07,05,10,8.10
2016,02,07,05,11,9.60
2016,02,07,05,12,4.80
2016,02,07,05,13,4.80
2016,02,07,05,14,4.80
2016,02,07,05,15,4.80
2016,02,07,05,16,4.80
2016,02,07,05,17,4.80
2016,02,07,05,18,3.20
2016,02,07,05,19,3.20
2016,02,07,05,20,6.40
2016,02,07,05,21,4.80
2016,02,07,05,22,4.80
2016,02,07,05,23,3.20
2016,02,07,05,24,6.40
2016,02,07,05,25,6.40
2016,02,07,05,26,6.40
2016,02,07,05,27,4.80
2016,02,07,05,28,3.20
2016,02,07,05,29,3.20
2016,02,07,05,30,3.20
2016,02,07,05,31,3.20
2016,02,07,05,32,1.60
2016,02,07,05,33,1.60
2016,02,07,05,34,8.10
2016,02,07,05,35,8.10
2016,02,07,05,36,8.10
2016,02,07,05,37,4.80
2016,02,07,05,38,4.80
2016,02,07,05,39,3.20
2016,02,07,05,40,1.60
2016,02,07,05,43,1.60
2016,02,07,05,44,3.20
2016,02,07,05,45,4.80
2016,02,07,05,46,6.40
2016,02,07,05,47,6.40
2016,02,07,05,48,6.40
2016,02,07,05,49,4.80
2016,02,07,05,50,1.60
2016,02,07,05,53,1.60
2016,02,07,05,54,1.60
2016,02,07,05,57,1.60
2016,02,07,05,58,3.20
2016,02,07,05,59,3.20
2016,02,07,06,00,3.20
2016,02,07,06,01,3.20
2016,02,07,06,02,3.20
2016,02,07,06,03,3.20
2016,02,07,06,04,1.60
2016,02,07,06,07,3.20
2016,02,07,06,08,3.20
2016,02,07,06,09,3.20
2016,02,07,06,10,3.20
2016,02,07,06,11,3.20
2016,02,07,06,12,3.20
2016,02,07,06,13,3.20
2016,02,07,06,14,4.80
2016,02,07,06,15,6.40
2016,02,07,06,16,6.40
2016,02,07,06,17,4.80
2016,02,07,06,18,4.80
2016,02,07,06,19,3.20
2016,02,07,06,20,4.80
2016,02,07,06,21,6.40
2016,02,07,06,22,8.10
2016,02,07,06,23,8.10
2016,02,07,06,24,8.10
2016,02,07,06,25,8.10
2016,02,07,06,26,9.60
2016,02,07,06,27,9.60
2016,02,07,06,28,9.60
2016,02,07,06,29,9.60
2016,02,07,06,30,9.60
2016,02,07,06,31,9.60
2016,02,07,06,32,11.30
2016,02,07,06,33,11.30
2016,02,07,06,34,14.50
2016,02,07,06,35,11.30
2016,02,07,06,36,8.10
2016,02,07,06,37,9.60
2016,02,07,06,38,8.10
2016,02,07,06,39,9.60
2016,02,07,06,40,9.60
2016,02,07,06,41,8.10
2016,02,07,06,42,8.10
2016,02,07,06,43,9.60
2016,02,07,06,44,9.60
2016,02,07,06,45,8.10
2016,02,07,06,46,8.10
2016,02,07,06,47,6.40
2016,02,07,06,48,6.40
2016,02,07,06,49,6.40
2016,02,07,06,50,4.80
2016,02,07,06,51,3.20
2016,02,07,06,52,4.80
2016,02,07,06,53,4.80
2016,02,07,06,54,3.20
2016,02,07,06,55,4.80
2016,02,07,06,56,6.40
2016,02,07,06,57,4.80
2016,02,07,06,58,6.40
2016,02,07,06,59,4.80
2016,02,07,07,00,3.20
2016,02,07,07,01,3.20
2016,02,07,07,02,4.80
2016,02,07,07,03,4.80
2016,02,07,07,04,6.40
2016,02,07,07,05,6.40
2016,02,07,07,06,6.40
2016,02,07,07,07,6.40
2016,02,07,07,08,6.40
2016,02,07,07,09,6.40
2016,02,07,07,10,4.80
2016,02,07,07,11,4.80
2016,02,07,07,12,6.40
2016,02,07,07,13,6.40
2016,02,07,07,14,4.80
2016,02,07,07,15,3.20
2016,02,07,07,16,3.20
2016,02,07,07,17,3.20
2016,02,07,07,18,3.20
2016,02,07,07,19,4.80
2016,02,07,07,20,6.40
2016,02,07,07,21,4.80
2016,02,07,07,22,6.40
2016,02,07,07,23,6.40
2016,02,07,07,24,6.40
2016,02,07,07,25,4.80
2016,02,07,07,26,4.80
2016,02,07,07,27,4.80
2016,02,07,07,28,3.20
2016,02,07,07,29,4.80
2016,02,07,07,30,4.80
2016,02,07,07,31,4.80
2016,02,07,07,32,6.40
2016,02,07,07,33,8.10
2016,02,07,07,34,8.10
2016,02,07,07,35,8.10
2016,02,07,07,36,8.10
2016,02,07,07,37,6.40
2016,02,07,07,38,8.10
2016,02,07,07,39,8.10
2016,02,07,07,40,8.10
2016,02,07,07,41,8.10
2016,02,07,07,42,8.10
2016,02,07,07,43,6.40
2016,02,07,07,44,8.10
2016,02,07,07,45,6.40
2016,02,07,07,46,4.80
2016,02,07,07,47,6.40
2016,02,07,07,48,8.10
2016,02,07,07,49,8.10
2016,02,07,07,50,11.30
2016,02,07,07,51,11.30
2016,02,07,07,52,9.60
2016,02,07,07,53,11.30
2016,02,07,07,54,9.60
2016,02,07,07,55,12.90
2016,02,07,07,56,14.50
2016,02,07,07,57,12.90
2016,02,07,07,58,11.30
2016,02,07,07,59,11.30
2016,02,07,08,00,6.40
2016,02,07,08,01,6.40
2016,02,07,08,02,4.80
2016,02,07,08,03,6.40
2016,02,07,08,04,4.80
2016,02,07,08,05,6.40
2016,02,07,08,06,6.40
2016,02,07,08,07,6.40
2016,02,07,08,08,4.80
2016,02,07,08,09,3.20
2016,02,07,08,10,4.80
2016,02,07,08,11,4.80
2016,02,07,08,12,4.80
2016,02,07,08,13,3.20
2016,02,07,08,14,4.80
2016,02,07,08,15,6.40
2016,02,07,08,16,4.80
2016,02,07,08,17,6.40
2016,02,07,08,18,4.80
2016,02,07,08,19,6.40
2016,02,07,08,20,6.40
2016,02,07,08,21,4.80
2016,02,07,08,22,4.80
2016,02,07,08,23,4.80
2016,02,07,08,24,3.20
2016,02,07,08,25,4.80
2016,02,07,08,26,3.20
2016,02,07,08,27,3.20
2016,02,07,08,28,3.20
2016,02,07,08,29,4.80
2016,02,07,08,30,4.80
2016,02,07,08,31,4.80
2016,02,07,08,32,3.20
2016,02,07,08,33,4.80
2016,02,07,08,34,4.80
2016,02,07,08,35,3.20
2016,02,07,08,36,8.10
2016,02,07,08,37,8.10
2016,02,07,08,38,8.10
2016,02,07,08,39,6.40
2016,02,07,08,40,8.10
2016,02,07,08,41,11.30
2016,02,07,08,42,11.30
2016,02,07,08,43,8.10
2016,02,07,08,44,9.60
2016,02,07,08,45,8.10
2016,02,07,08,46,8.10
2016,02,07,08,47,8.10
2016,02,07,08,48,8.10
2016,02,07,08,49,8.10
2016,02,07,08,50,6.40
2016,02,07,08,51,8.10
2016,02,07,08,52,6.40
2016,02,07,08,53,8.10
2016,02,07,08,54,9.60
2016,02,07,08,55,9.60
2016,02,07,08,56,8.10
2016,02,07,08,57,9.60
2016,02,07,08,58,6.40
2016,02,07,08,59,8.10
2016,02,07,09,00,6.40
2016,02,07,09,01,6.40
2016,02,07,09,02,4.80
2016,02,07,09,03,6.40
2016,02,07,09,04,6.40
2016,02,07,09,05,6.40
2016,02,07,09,06,4.80
2016,02,07,09,07,4.80
2016,02,07,09,08,6.40
2016,02,07,09,09,6.40
2016,02,07,09,10,4.80
2016,02,07,09,11,6.40
2016,02,07,09,12,4.80
2016,02,07,09,13,8.10
2016,02,07,09,14,8.10
2016,02,07,09,15,6.40
2016,02,07,09,16,8.10
2016,02,07,09,17,6.40
2016,02,07,09,18,8.10
2016,02,07,09,19,8.10
2016,02,07,09,20,6.40
2016,02,07,09,21,6.40
2016,02,07,09,22,8.10
2016,02,07,09,23,9.60
2016,02,07,09,24,6.40
2016,02,07,09,25,8.10
2016,02,07,09,26,6.40
2016,02,07,09,27,8.10
2016,02,07,09,28,9.60
2016,02,07,09,29,8.10
2016,02,07,09,30,11.30
2016,02,07,09,31,9.60
2016,02,07,09,32,8.10
2016,02,07,09,33,9.60
2016,02,07,09,34,11.30
2016,02,07,09,35,8.10
2016,02,07,09,36,11.30
2016,02,07,09,37,8.10
2016,02,07,09,38,9.60
2016,02,07,09,39,14.50
2016,02,07,09,40,11.30
2016,02,07,09,41,9.60
2016,02,07,09,42,11.30
2016,02,07,09,43,9.60
2016,02,07,09,44,11.30
2016,02,07,09,45,16.10
2016,02,07,09,46,16.10
2016,02,07,09,47,11.30
2016,02,07,09,48,14.50
2016,02,07,09,49,11.30
2016,02,07,09,50,11.30
2016,02,07,09,51,14.50
2016,02,07,09,52,11.30
2016,02,07,09,53,8.10
2016,02,07,09,54,11.30
2016,02,07,09,55,8.10
2016,02,07,09,56,8.10
2016,02,07,09,57,8.10
2016,02,07,09,58,6.40
2016,02,07,09,59,9.60
2016,02,07,10,00,11.30
2016,02,07,10,01,9.60
2016,02,07,10,02,8.10
2016,02,07,10,03,8.10
2016,02,07,10,04,6.40
2016,02,07,10,05,8.10
2016,02,07,10,06,9.60
2016,02,07,10,07,8.10
2016,02,07,10,08,6.40
2016,02,07,10,09,11.30
2016,02,07,10,10,9.60
2016,02,07,10,11,8.10
2016,02,07,10,12,8.10
2016,02,07,10,13,8.10
2016,02,07,10,14,9.60
2016,02,07,10,15,9.60
2016,02,07,10,16,9.60
2016,02,07,10,17,8.10
2016,02,07,10,18,9.60
2016,02,07,10,19,8.10
2016,02,07,10,20,8.10
2016,02,07,10,21,8.10
2016,02,07,10,22,9.60
2016,02,07,10,23,6.40
2016,02,07,10,24,6.40
2016,02,07,10,25,8.10
2016,02,07,10,26,9.60
2016,02,07,10,27,12.90
2016,02,07,10,28,8.10
2016,02,07,10,29,6.40
2016,02,07,10,30,11.30
2016,02,07,10,31,11.30
2016,02,07,10,32,9.60
2016,02,07,10,33,9.60
2016,02,07,10,34,8.10
2016,02,07,10,35,11.30
2016,02,07,10,36,9.60
2016,02,07,10,37,8.10
2016,02,07,10,38,9.60
2016,02,07,10,39,9.60
2016,02,07,10,40,9.60
2016,02,07,10,41,9.60
2016,02,07,10,42,8.10
2016,02,07,10,43,11.30
2016,02,07,10,44,11.30
2016,02,07,10,45,14.50
2016,02,07,10,46,9.60
2016,02,07,10,47,16.10
2016,02,07,10,48,17.70
2016,02,07,10,49,11.30
2016,02,07,10,50,12.90
2016,02,07,10,51,11.30
2016,02,07,10,52,9.60
2016,02,07,10,53,16.10
2016,02,07,10,54,12.90
2016,02,07,10,55,11.30
2016,02,07,10,56,9.60
2016,02,07,10,57,11.30
2016,02,07,10,58,16.10
2016,02,07,10,59,14.50
2016,02,07,11,00,16.10
2016,02,07,11,01,16.10
2016,02,07,11,02,14.50
2016,02,07,11,03,19.30
2016,02,07,11,04,16.10
2016,02,07,11,05,14.50
2016,02,07,11,06,11.30
2016,02,07,11,07,11.30
2016,02,07,11,08,12.90
2016,02,07,11,09,12.90
2016,02,07,11,10,14.50
2016,02,07,11,11,19.30
2016,02,07,11,12,16.10
2016,02,07,11,13,16.10
2016,02,07,11,14,16.10
2016,02,07,11,15,11.30
2016,02,07,11,16,17.70
2016,02,07,11,17,16.10
2016,02,07,11,18,11.30
2016,02,07,11,19,9.60
2016,02,07,11,20,14.50
2016,02,07,11,21,12.90
2016,02,07,11,22,16.10
2016,02,07,11,23,12.90
2016,02,07,11,24,9.60
2016,02,07,11,25,9.60
2016,02,07,11,26,9.60
2016,02,07,11,27,12.90
2016,02,07,11,28,14.50
2016,02,07,11,29,9.60
2016,02,07,11,30,14.50
2016,02,07,11,31,11.30
2016,02,07,11,32,17.70
2016,02,07,11,33,16.10
2016,02,07,11,34,16.10
2016,02,07,11,35,11.30
2016,02,07,11,36,16.10
2016,02,07,11,37,14.50
2016,02,07,11,38,12.90
2016,02,07,11,39,11.30
2016,02,07,11,40,12.90
2016,02,07,11,41,8.10
2016,02,07,11,42,8.10
2016,02,07,11,43,6.40
2016,02,07,11,44,8.10
2016,02,07,11,45,9.60
2016,02,07,11,46,9.60
2016,02,07,11,47,14.50
2016,02,07,11,48,14.50
2016,02,07,11,49,12.90
2016,02,07,11,50,14.50
2016,02,07,11,51,16.10
2016,02,07,11,52,11.30
2016,02,07,11,53,12.90
2016,02,07,11,54,14.50
2016,02,07,11,55,12.90
2016,02,07,11,56,19.30
2016,02,07,11,57,16.10
2016,02,07,11,58,17.70
2016,02,07,11,59,24.20
2016,02,07,12,00,20.90
2016,02,07,12,01,17.70
2016,02,07,12,02,16.10
2016,02,07,12,03,24.20
2016,02,07,12,04,19.30
2016,02,07,12,05,9.60
2016,02,07,12,06,16.10
2016,02,07,12,07,16.10
2016,02,07,12,08,19.30
2016,02,07,12,09,19.30
2016,02,07,12,10,16.10
2016,02,07,12,11,19.30
2016,02,07,12,12,19.30
2016,02,07,12,13,17.70
2016,02,07,12,14,16.10
2016,02,07,12,15,14.50
2016,02,07,12,16,9.60
2016,02,07,12,17,9.60
2016,02,07,12,18,12.90
2016,02,07,12,19,16.10
2016,02,07,12,20,16.10
2016,02,07,12,21,16.10
2016,02,07,12,22,14.50
2016,02,07,12,23,16.10
2016,02,07,12,24,11.30
2016,02,07,12,25,9.60
2016,02,07,12,26,9.60
2016,02,07,12,27,12.90
2016,02,07,12,28,11.30
2016,02,07,12,29,11.30
2016,02,07,12,30,14.50
2016,02,07,12,31,11.30
2016,02,07,12,32,11.30
2016,02,07,12,33,16.10
2016,02,07,12,34,14.50
2016,02,07,12,35,14.50
2016,02,07,12,36,11.30
2016,02,07,12,37,11.30
2016,02,07,12,38,12.90
2016,02,07,12,39,9.60
2016,02,07,12,40,9.60
2016,02,07,12,41,11.30
2016,02,07,12,42,11.30
2016,02,07,12,43,16.10
2016,02,07,12,44,16.10
2016,02,07,12,45,14.50
2016,02,07,12,46,16.10
2016,02,07,12,47,16.10
2016,02,07,12,48,9.60
2016,02,07,12,49,9.60
2016,02,07,12,50,9.60
2016,02,07,12,51,6.40
2016,02,07,12,52,9.60
2016,02,07,12,53,11.30
2016,02,07,12,54,14.50
2016,02,07,12,55,11.30
2016,02,07,12,56,16.10
2016,02,07,12,57,17.70
2016,02,07,12,58,11.30
2016,02,07,12,59,14.50
2016,02,07,13,00,8.10
2016,02,07,13,01,9.60
2016,02,07,13,02,11.30
2016,02,07,13,03,11.30
2016,02,07,13,04,11.30
2016,02,07,13,05,9.60
2016,02,07,13,06,12.90
2016,02,07,13,07,14.50
2016,02,07,13,08,14.50
2016,02,07,13,09,17.70
2016,02,07,13,10,12.90
2016,02,07,13,11,9.60
2016,02,07,13,12,11.30
2016,02,07,13,13,16.10
2016,02,07,13,14,24.20
2016,02,07,13,15,20.90
2016,02,07,13,16,14.50
2016,02,07,13,17,20.90
2016,02,07,13,18,17.70
2016,02,07,13,19,16.10
2016,02,07,13,20,9.60
2016,02,07,13,21,11.30
2016,02,07,13,22,11.30
2016,02,07,13,23,14.50
2016,02,07,13,24,16.10
2016,02,07,13,25,20.90
2016,02,07,13,26,19.30
2016,02,07,13,27,11.30
2016,02,07,13,28,14.50
2016,02,07,13,29,11.30
2016,02,07,13,30,8.10
2016,02,07,13,31,9.60
2016,02,07,13,32,9.60
2016,02,07,13,33,8.10
2016,02,07,13,34,17.70
2016,02,07,13,35,17.70
2016,02,07,13,36,16.10
2016,02,07,13,37,11.30
2016,02,07,13,38,16.10
2016,02,07,13,39,11.30
2016,02,07,13,40,20.90
2016,02,07,13,41,22.50
2016,02,07,13,42,20.90
2016,02,07,13,43,17.70
2016,02,07,13,44,16.10
2016,02,07,13,45,16.10
2016,02,07,13,46,14.50
2016,02,07,13,47,14.50
2016,02,07,13,48,9.60
2016,02,07,13,49,14.50
2016,02,07,13,50,11.30
2016,02,07,13,51,14.50
2016,02,07,13,52,11.30
2016,02,07,13,53,11.30
2016,02,07,13,54,9.60
2016,02,07,13,55,8.10
2016,02,07,13,56,8.10
2016,02,07,13,57,11.30
2016,02,07,13,58,14.50
2016,02,07,13,59,14.50
2016,02,07,14,00,14.50
2016,02,07,14,01,11.30
2016,02,07,14,02,14.50
2016,02,07,14,03,11.30
2016,02,07,14,04,11.30
2016,02,07,14,05,9.60
2016,02,07,14,06,11.30
2016,02,07,14,07,9.60
2016,02,07,14,08,12.90
2016,02,07,14,09,16.10
2016,02,07,14,10,11.30
2016,02,07,14,11,9.60
2016,02,07,14,12,9.60
2016,02,07,14,13,11.30
2016,02,07,14,14,11.30
2016,02,07,14,15,9.60
2016,02,07,14,16,9.60
2016,02,07,14,17,11.30
2016,02,07,14,18,11.30
2016,02,07,14,19,16.10
2016,02,07,14,20,16.10
2016,02,07,14,21,14.50
2016,02,07,14,22,14.50
2016,02,07,14,23,16.10
2016,02,07,14,24,22.50
2016,02,07,14,25,22.50
2016,02,07,14,26,19.30
2016,02,07,14,27,17.70
2016,02,07,14,28,17.70
2016,02,07,14,29,19.30
2016,02,07,14,30,17.70
2016,02,07,14,31,16.10
2016,02,07,14,32,16.10
2016,02,07,14,33,16.10
2016,02,07,14,34,19.30
2016,02,07,14,35,19.30
2016,02,07,14,36,22.50
2016,02,07,14,37,22.50
2016,02,07,14,38,22.50
2016,02,07,14,39,16.10
2016,02,07,14,40,19.30
2016,02,07,14,41,17.70
2016,02,07,14,42,20.90
2016,02,07,14,43,16.10
2016,02,07,14,44,17.70
2016,02,07,14,45,19.30
2016,02,07,14,46,16.10
2016,02,07,14,47,16.10
2016,02,07,14,48,14.50
2016,02,07,14,49,17.70
2016,02,07,14,50,17.70
2016,02,07,14,51,14.50
2016,02,07,14,52,16.10
2016,02,07,14,53,16.10
2016,02,07,14,54,19.30
2016,02,07,14,55,16.10
2016,02,07,14,56,14.50
2016,02,07,14,57,17.70
2016,02,07,14,58,14.50
2016,02,07,14,59,16.10
2016,02,07,15,00,17.70
2016,02,07,15,01,16.10
2016,02,07,15,02,12.90
2016,02,07,15,03,17.70
2016,02,07,15,04,16.10
2016,02,07,15,05,16.10
2016,02,07,15,06,17.70
2016,02,07,15,07,16.10
2016,02,07,15,08,17.70
2016,02,07,15,09,11.30
2016,02,07,15,10,16.10
2016,02,07,15,11,16.10
2016,02,07,15,12,17.70
2016,02,07,15,13,16.10
2016,02,07,15,14,16.10
2016,02,07,15,15,16.10
2016,02,07,15,16,16.10
2016,02,07,15,17,14.50
2016,02,07,15,18,9.60
2016,02,07,15,19,12.90
2016,02,07,15,20,11.30
2016,02,07,15,21,19.30
2016,02,07,15,22,11.30
2016,02,07,15,23,11.30
2016,02,07,15,24,9.60
2016,02,07,15,25,16.10
2016,02,07,15,26,17.70
2016,02,07,15,27,16.10
2016,02,07,15,28,14.50
2016,02,07,15,29,11.30
2016,02,07,15,30,12.90
2016,02,07,15,31,14.50
2016,02,07,15,32,11.30
2016,02,07,15,33,12.90
2016,02,07,15,34,9.60
2016,02,07,15,35,8.10
2016,02,07,15,36,12.90
2016,02,07,15,37,11.30
2016,02,07,15,38,11.30
2016,02,07,15,39,14.50
2016,02,07,15,40,12.90
2016,02,07,15,41,16.10
2016,02,07,15,42,16.10
2016,02,07,15,43,17.70
2016,02,07,15,44,16.10
2016,02,07,15,45,16.10
2016,02,07,15,46,17.70
2016,02,07,15,47,11.30
2016,02,07,15,48,14.50
2016,02,07,15,49,14.50
2016,02,07,15,50,16.10
2016,02,07,15,51,9.60
2016,02,07,15,52,9.60
2016,02,07,15,53,9.60
2016,02,07,15,54,16.10
2016,02,07,15,55,9.60
2016,02,07,15,56,9.60
2016,02,07,15,57,8.10
2016,02,07,15,58,14.50
2016,02,07,15,59,12.90
2016,02,07,16,00,9.60
2016,02,07,16,01,8.10
2016,02,07,16,02,11.30
2016,02,07,16,03,11.30
2016,02,07,16,04,11.30
2016,02,07,16,05,12.90
2016,02,07,16,06,11.30
2016,02,07,16,07,9.60
2016,02,07,16,08,9.60
2016,02,07,16,09,14.50
2016,02,07,16,10,14.50
2016,02,07,16,11,14.50
2016,02,07,16,12,8.10
2016,02,07,16,13,9.60
2016,02,07,16,14,14.50
2016,02,07,16,15,11.30
2016,02,07,16,16,11.30
2016,02,07,16,17,9.60
2016,02,07,16,18,9.60
2016,02,07,16,19,9.60
2016,02,07,16,20,12.90
2016,02,07,16,21,12.90
2016,02,07,16,22,11.30
2016,02,07,16,23,14.50
2016,02,07,16,24,16.10
2016,02,07,16,25,14.50
2016,02,07,16,26,16.10
2016,02,07,16,27,16.10
2016,02,07,16,28,16.10
2016,02,07,16,29,16.10
2016,02,07,16,30,16.10
2016,02,07,16,31,16.10
2016,02,07,16,32,17.70
2016,02,07,16,33,16.10
2016,02,07,16,34,12.90
2016,02,07,16,35,16.10
2016,02,07,16,36,14.50
2016,02,07,16,37,12.90
2016,02,07,16,38,14.50
2016,02,07,16,39,14.50
2016,02,07,16,40,16.10
2016,02,07,16,41,16.10
2016,02,07,16,42,16.10
2016,02,07,16,43,9.60
2016,02,07,16,44,11.30
2016,02,07,16,45,11.30
2016,02,07,16,46,9.60
2016,02,07,16,47,11.30
2016,02,07,16,48,14.50
2016,02,07,16,49,14.50
2016,02,07,16,50,9.60
2016,02,07,16,51,9.60
2016,02,07,16,52,8.10
2016,02,07,16,53,14.50
2016,02,07,16,54,14.50
2016,02,07,16,55,16.10
2016,02,07,16,56,9.60
2016,02,07,16,57,8.10
2016,02,07,16,58,9.60
2016,02,07,16,59,11.30
2016,02,07,17,00,11.30
2016,02,07,17,01,9.60
2016,02,07,17,02,14.50
2016,02,07,17,03,11.30
2016,02,07,17,04,11.30
2016,02,07,17,05,12.90
2016,02,07,17,06,9.60
2016,02,07,17,07,8.10
2016,02,07,17,08,6.40
2016,02,07,17,09,8.10
2016,02,07,17,10,9.60
2016,02,07,17,11,9.60
2016,02,07,17,12,8.10
2016,02,07,17,13,9.60
2016,02,07,17,14,11.30
2016,02,07,17,15,11.30
2016,02,07,17,16,12.90
2016,02,07,17,17,11.30
2016,02,07,17,18,11.30
2016,02,07,17,19,14.50
2016,02,07,17,20,14.50
2016,02,07,17,21,12.90
2016,02,07,17,22,8.10
2016,02,07,17,23,9.60
2016,02,07,17,24,9.60
2016,02,07,17,25,9.60
2016,02,07,17,26,9.60
2016,02,07,17,27,9.60
2016,02,07,17,28,9.60
2016,02,07,17,29,8.10
2016,02,07,17,30,11.30
2016,02,07,17,31,11.30
2016,02,07,17,32,11.30
2016,02,07,17,33,9.60
2016,02,07,17,34,9.60
2016,02,07,17,35,8.10
2016,02,07,17,36,11.30
2016,02,07,17,37,8.10
2016,02,07,17,38,9.60
2016,02,07,17,39,8.10
2016,02,07,17,40,8.10
2016,02,07,17,41,6.40
2016,02,07,17,42,8.10
2016,02,07,17,43,6.40
2016,02,07,17,44,8.10
2016,02,07,17,45,9.60
2016,02,07,17,46,8.10
2016,02,07,17,47,9.60
2016,02,07,17,48,11.30
2016,02,07,17,49,11.30
2016,02,07,17,50,12.90
2016,02,07,17,51,14.50
2016,02,07,17,52,8.10
2016,02,07,17,53,11.30
2016,02,07,17,54,8.10
2016,02,07,17,55,9.60
2016,02,07,17,56,9.60